This is the latest recevied weather packets stored in our database for station/object VK6HGR-1. If no packets are shown the sender has not sent any weather packets the latest 10 day(s).
| Time | Temp. | Humidity | Pressure | Rain* | Wind** | Luminosity | Snow |
|---|---|---|---|---|---|---|---|
| 1778114710 | 15° C | 63% | 1028.9 hPa | - | - | - | - |
| 1778113810 | 13.89° C | 64% | 1028.9 hPa | - | - | - | - |
| 1778112913 | 13.33° C | 65% | 1028.9 hPa | - | - | - | - |
| 1778112013 | 13.33° C | 65% | 1028.9 hPa | - | - | - | - |
| 1778111114 | 12.78° C | 66% | 1028.7 hPa | - | - | - | - |
| 1778110210 | 12.78° C | 66% | 1028.7 hPa | - | - | - | - |
| 1778109314 | 12.22° C | 66% | 1028.6 hPa | - | - | - | - |
| 1778108411 | 12.22° C | 66% | 1028.4 hPa | - | - | - | - |
| 1778107510 | 12.78° C | 66% | 1028.2 hPa | - | - | - | - |
| 1778106610 | 12.78° C | 66% | 1028 hPa | - | - | - | - |
| 1778105710 | 12.78° C | 65% | 1028 hPa | - | - | - | - |
| 1778104811 | 12.78° C | 65% | 1027.8 hPa | - | - | - | - |
| 1778103912 | 12.78° C | 65% | 1027.7 hPa | - | - | - | - |
| 1778103011 | 12.78° C | 66% | 1027.6 hPa | - | - | - | - |
| 1778102112 | 12.78° C | 65% | 1027.6 hPa | - | - | - | - |
| 1778101211 | 12.78° C | 66% | 1027.5 hPa | - | - | - | - |
| 1778100313 | 13.33° C | 64% | 1027.4 hPa | - | - | - | - |
| 1778099411 | 13.89° C | 63% | 1027.4 hPa | - | - | - | - |
| 1778098510 | 14.44° C | 62% | 1027.2 hPa | - | - | - | - |
| 1778097642 | 14.44° C | 62% | 1027.1 hPa | - | - | - | - |
| 1778097611 | 14.44° C | 62% | 1027.1 hPa | - | - | - | - |
| 1778096718 | 14.44° C | 61% | 1027 hPa | - | - | - | - |
| 1778095814 | 14.44° C | 61% | 1026.9 hPa | - | - | - | - |
| 1778094911 | 15° C | 61% | 1027 hPa | - | - | - | - |
| 1778094011 | 15° C | 61% | 1027 hPa | - | - | - | - |
* Rain since midnight (hover to see other rain measurements)
** Current wind speed in m/s (hover to see current wind gust speed)